Time,TemperatureF,DewpointF,PressureIn,WindDirection,WindDirectionDegrees,WindSpeedMPH,WindSpeedGustMPH,Humidity,HourlyPrecipIn,Conditions,Clouds,dailyrainin,SoftwareType,DateUTC
2013-06-26 00:01:00,75.0,72.0,-100.00,SW,230,9.0,14.0,88,-99.99,,,-99.99,,2013-06-26 04:01:00,
2013-06-26 00:12:00,76.0,72.0,-100.00,WSW,240,8.0,14.0,88,-99.99,,,-99.99,,2013-06-26 04:12:00,
2013-06-26 00:22:00,72.0,64.0,-100.00,NW,315,18.0,30.0,77,-99.99,,,-99.99,,2013-06-26 04:22:00,
2013-06-26 00:43:00,67.0,65.0,-100.00,West,270,6.0,11.0,91,-99.99,,,-99.99,,2013-06-26 04:43:00,
2013-06-26 01:11:00,67.0,65.0,-100.00,SW,225,4.0,8.0,95,-99.99,,,-99.99,,2013-06-26 05:11:00,
2013-06-26 01:34:00,66.0,64.0,-100.00,WNW,300,1.0,7.0,95,-99.99,,,-99.99,,2013-06-26 05:34:00,
2013-06-26 01:43:00,66.0,65.0,-100.00,SW,230,4.0,7.0,96,-99.99,,,-99.99,,2013-06-26 05:43:00,
2013-06-26 02:34:00,65.0,64.0,-100.00,SW,230,4.0,9.0,96,-99.99,,,-99.99,,2013-06-26 06:34:00,
2013-06-26 02:43:00,66.0,65.0,-100.00,SW,235,5.0,7.0,97,-99.99,,,-99.99,,2013-06-26 06:43:00,
2013-06-26 02:53:00,65.0,65.0,-100.00,SW,235,4.0,9.0,97,-99.99,,,-99.99,,2013-06-26 06:53:00,
2013-06-26 03:01:00,65.0,65.0,-100.00,SW,235,7.0,16.0,97,-99.99,,,-99.99,,2013-06-26 07:01:00,
2013-06-26 03:11:00,65.0,64.0,-100.00,West,280,4.0,14.0,97,-99.99,,,-99.99,,2013-06-26 07:11:00,
2013-06-26 03:33:00,65.0,64.0,-100.00,WNW,285,2.0,6.0,97,-99.99,,,-99.99,,2013-06-26 07:33:00,
2013-06-26 03:43:00,65.0,64.0,-100.00,South,180,2.0,7.0,97,-99.99,,,-99.99,,2013-06-26 07:43:00,
2013-06-26 03:53:00,65.0,64.0,-100.00,South,180,2.0,4.0,98,-99.99,,,-99.99,,2013-06-26 07:53:00,
2013-06-26 04:01:00,65.0,64.0,-100.00,South,175,2.0,5.0,98,-99.99,,,-99.99,,2013-06-26 08:01:00,
2013-06-26 04:33:00,65.0,65.0,-100.00,SSE,150,4.0,7.0,99,-99.99,,,-99.99,,2013-06-26 08:33:00,
2013-06-26 04:42:00,65.0,65.0,-100.00,WSW,240,5.0,7.0,99,-99.99,,,-99.99,,2013-06-26 08:42:00,
2013-06-26 04:52:00,64.0,64.0,-100.00,SSW,210,4.0,7.0,99,-99.99,,,-99.99,,2013-06-26 08:52:00,
2013-06-26 05:01:00,64.0,64.0,-100.00,SW,220,7.0,10.0,99,-99.99,,,-99.99,,2013-06-26 09:01:00,
2013-06-26 05:22:00,64.0,64.0,-100.00,SW,230,9.0,14.0,99,-99.99,,,-99.99,,2013-06-26 09:22:00,
2013-06-26 05:33:00,64.0,64.0,-100.00,SW,230,9.0,13.0,99,-99.99,,,-99.99,,2013-06-26 09:33:00,
2013-06-26 05:43:00,64.0,63.0,-100.00,SSE,165,6.0,12.0,99,-99.99,,,-99.99,,2013-06-26 09:43:00,
2013-06-26 06:12:00,63.0,63.0,-100.00,South,170,6.0,14.0,99,-99.99,,,-99.99,,2013-06-26 10:12:00,
2013-06-26 06:22:00,63.0,63.0,-100.00,SSE,165,3.0,14.0,99,-99.99,,,-99.99,,2013-06-26 10:22:00,
2013-06-26 06:34:00,63.0,63.0,-100.00,WSW,240,9.0,16.0,99,-99.99,,,-99.99,,2013-06-26 10:34:00,
2013-06-26 06:43:00,63.0,63.0,-100.00,WSW,255,4.0,12.0,99,-99.99,,,-99.99,,2013-06-26 10:43:00,
2013-06-26 07:12:00,62.0,62.0,-100.00,SSW,205,4.0,7.0,99,-99.99,,,-99.99,,2013-06-26 11:12:00,
2013-06-26 07:22:00,62.0,62.0,-100.00,South,185,4.0,7.0,99,-99.99,,,-99.99,,2013-06-26 11:22:00,
2013-06-26 07:33:00,62.0,62.0,-100.00,SW,230,3.0,6.0,99,-99.99,,,-99.99,,2013-06-26 11:33:00,
2013-06-26 07:44:00,63.0,62.0,-100.00,SW,225,4.0,6.0,99,-99.99,,,-99.99,,2013-06-26 11:44:00,
2013-06-26 08:02:00,63.0,62.0,-100.00,SSW,205,2.0,6.0,99,-99.99,,,-99.99,,2013-06-26 12:02:00,
2013-06-26 08:12:00,63.0,62.0,-100.00,South,190,2.0,6.0,99,-99.99,,,-99.99,,2013-06-26 12:12:00,
2013-06-26 08:22:00,63.0,62.0,-100.00,South,180,3.0,6.0,99,-99.99,,,-99.99,,2013-06-26 12:22:00,
2013-06-26 08:33:00,63.0,63.0,-100.00,SW,220,4.0,7.0,99,-99.99,,,-99.99,,2013-06-26 12:33:00,
2013-06-26 08:42:00,63.0,63.0,-100.00,SSW,210,5.0,10.0,99,-99.99,,,-99.99,,2013-06-26 12:42:00,
2013-06-26 09:02:00,64.0,63.0,-100.00,SSW,205,4.0,11.0,99,-99.99,,,-99.99,,2013-06-26 13:02:00,
2013-06-26 09:43:00,65.0,65.0,-100.00,SSW,195,6.0,12.0,98,-99.99,,,-99.99,,2013-06-26 13:43:00,
2013-06-26 10:34:00,69.0,65.0,-100.00,SSW,205,6.0,11.0,88,-99.99,,,-99.99,,2013-06-26 14:34:00,
2013-06-26 10:42:00,70.0,66.0,-100.00,SSW,205,5.0,11.0,86,-99.99,,,-99.99,,2013-06-26 14:42:00,
2013-06-26 11:02:00,72.0,65.0,-100.00,SSW,210,5.0,14.0,78,-99.99,,,-99.99,,2013-06-26 15:02:00,
2013-06-26 11:34:00,75.0,66.0,-100.00,SSW,205,7.0,17.0,74,-99.99,,,-99.99,,2013-06-26 15:34:00,
2013-06-26 11:44:00,75.0,66.0,-100.00,SSW,205,7.0,16.0,74,-99.99,,,-99.99,,2013-06-26 15:44:00,
2013-06-26 12:01:00,76.0,67.0,-100.00,SW,215,9.0,16.0,75,-99.99,,,-99.99,,2013-06-26 16:01:00,
2013-06-26 13:02:00,79.0,69.0,-100.00,SW,225,10.0,16.0,73,-99.99,,,-99.99,,2013-06-26 17:02:00,
2013-06-26 13:11:00,79.0,70.0,-100.00,SW,225,9.0,17.0,74,-99.99,,,-99.99,,2013-06-26 17:11:00,
2013-06-26 13:23:00,78.0,69.0,-100.00,SW,230,9.0,17.0,74,-99.99,,,-99.99,,2013-06-26 17:23:00,
2013-06-26 13:33:00,79.0,70.0,-100.00,SW,220,7.0,18.0,75,-99.99,,,-99.99,,2013-06-26 17:33:00,
2013-06-26 13:43:00,78.0,70.0,-100.00,SW,230,12.0,16.0,77,-99.99,,,-99.99,,2013-06-26 17:43:00,
2013-06-26 14:01:00,78.0,70.0,-100.00,SW,225,10.0,15.0,77,-99.99,,,-99.99,,2013-06-26 18:01:00,
2013-06-26 14:43:00,77.0,69.0,-100.00,SSW,205,9.0,19.0,77,-99.99,,,-99.99,,2013-06-26 18:43:00,
2013-06-26 15:02:00,78.0,69.0,-100.00,SW,215,9.0,16.0,75,-99.99,,,-99.99,,2013-06-26 19:02:00,
2013-06-26 17:43:00,68.0,67.0,-100.00,SSE,160,7.0,14.0,98,-99.99,,,-99.99,,2013-06-26 21:43:00,
2013-06-26 18:01:00,67.0,67.0,-100.00,SSE,160,5.0,15.0,98,-99.99,,,-99.99,,2013-06-26 22:01:00,
2013-06-26 18:11:00,67.0,67.0,-100.00,South,170,1.0,10.0,98,-99.99,,,-99.99,,2013-06-26 22:11:00,
2013-06-26 18:22:00,67.0,67.0,-100.00,South,180,5.0,8.0,98,-99.99,,,-99.99,,2013-06-26 22:22:00,
2013-06-26 18:34:00,67.0,67.0,-100.00,SW,215,5.0,9.0,99,-99.99,,,-99.99,,2013-06-26 22:34:00,
2013-06-26 18:43:00,67.0,67.0,-100.00,SE,140,4.0,9.0,99,-99.99,,,-99.99,,2013-06-26 22:43:00,
2013-06-26 19:34:00,67.0,66.0,-100.00,WNW,285,1.0,6.0,99,-99.99,,,-99.99,,2013-06-26 23:34:00,
2013-06-26 19:43:00,67.0,66.0,-100.00,SSE,150,2.0,4.0,99,-99.99,,,-99.99,,2013-06-26 23:43:00,
2013-06-26 20:01:00,66.0,66.0,-100.00,SSE,155,1.0,4.0,99,-99.99,,,-99.99,,2013-06-27 00:01:00,
2013-06-26 20:12:00,66.0,65.0,-100.00,ESE,120,3.0,4.0,99,-99.99,,,-99.99,,2013-06-27 00:12:00,
2013-06-26 20:22:00,66.0,65.0,-100.00,ESE,120,3.0,4.0,99,-99.99,,,-99.99,,2013-06-27 00:22:00,
2013-06-26 20:33:00,66.0,66.0,-100.00,SSE,165,1.0,2.0,99,-99.99,,,-99.99,,2013-06-27 00:33:00,
2013-06-26 20:43:00,66.0,66.0,-100.00,ESE,110,2.0,4.0,99,-99.99,,,-99.99,,2013-06-27 00:43:00,
2013-06-26 21:01:00,65.0,65.0,-100.00,SW,220,3.0,6.0,99,-99.99,,,-99.99,,2013-06-27 01:01:00,
2013-06-26 21:11:00,65.0,65.0,-100.00,SE,145,5.0,7.0,99,-99.99,,,-99.99,,2013-06-27 01:11:00,
2013-06-26 21:32:00,65.0,64.0,-100.00,SE,130,1.0,4.0,99,-99.99,,,-99.99,,2013-06-27 01:32:00,
2013-06-26 21:43:00,65.0,64.0,-100.00,East,80,2.0,3.0,99,-99.99,,,-99.99,,2013-06-27 01:43:00,
2013-06-26 22:01:00,65.0,65.0,-100.00,SSE,155,3.0,6.0,99,-99.99,,,-99.99,,2013-06-27 02:01:00,
2013-06-26 22:22:00,65.0,64.0,-100.00,SE,125,3.0,8.0,99,-99.99,,,-99.99,,2013-06-27 02:22:00,
2013-06-26 22:42:00,65.0,64.0,-100.00,South,175,2.0,6.0,99,-99.99,,,-99.99,,2013-06-27 02:42:00,
2013-06-26 23:02:00,65.0,64.0,-100.00,SSE,165,2.0,5.0,99,-99.99,,,-99.99,,2013-06-27 03:02:00,
2013-06-26 23:11:00,65.0,64.0,-100.00,SE,135,2.0,6.0,99,-99.99,,,-99.99,,2013-06-27 03:11:00,
2013-06-26 23:42:00,64.0,64.0,-100.00,SSE,165,4.0,9.0,99,-99.99,,,-99.99,,2013-06-27 03:42:00,